Mansfield, OH

9:11 AM EST on December 18, 2017 (GMT -0500)
Mansfield Lahm Regional

Weather History for KMFD - March, 2014

Change the Weather History Date:

Monday, March 10, 2014

  Actual Average Record
Temperature  
Mean Temperature 47 °F 35 °F  
Max Temperature 56 °F 44 °F 72 °F (1973)
Min Temperature 37 °F 26 °F 6 °F (1984)
Degree Days  
Heating Degree Days 18 30  
Month to date heating degree days 378 318  
Since 1 July heating degree days 5422 4943  
Cooling Degree Days 0 0  
Month to date cooling degree days 0 0  
Year to date cooling degree days 0 0  
Moisture  
Dew Point 33 °F    
Average Humidity 64    
Maximum Humidity 76    
Minimum Humidity 51    
Precipitation  
Precipitation 0.01 in 0.10 in 1.11 in (1952)
Month to date precipitation 0.27 0.95  
Year to date precipitation 4.60 6.21  
Snow  
Snow 0.00 in 0.30 in - ()
Month to date snowfall 3.2 3.3  
Since 1 July snowfall 56.0 41.2  
Snow Depth 0.00 in    
Sea Level Pressure  
Sea Level Pressure 29.77 in    
Wind  
Wind Speed 15 mph (SW)    
Max Wind Speed 25 mph    
Max Gust Speed 31 mph    
Visibility 10 miles    
Events Rain    
T = Trace of Precipitation, MM = Missing Value Source: NWS Daily Summary

Daily Weather History Graph

Daily Weather History Graph

Search for Another Location

Airport or City:

Trip Planner

Search our weather history database for the weather conditions in past years. The results will help you decide how hot, cold, wet, or windy it might be!

Date:

Astronomy

Mar. 10, 2014 Rise Set
Actual Time 7:49 AM EDT 7:31 PM EDT
Civil Twilight 7:22 AM EDT 7:58 PM EDT
Nautical Twilight 6:50 AM EDT 8:30 PM EDT
Astronomical Twilight 6:18 AM EDT 9:02 PM EDT
Moon 2:12 PM EDT (3/10) 4:02 AM EDT (3/10)
Length of Visible Light 12h 36m
Length of Day
11h 41m
Waxing Gibbous, 70% of the Moon is Illuminated
Mar 10
Waxing Gibbous
Mar 16
Full
Mar 23
Last Quarter
Mar 30
New
Apr 7
First Quarter

Hourly Weather History & Observations

Time (EDT) Temp. Windchill Dew Point Humidity Pressure Visibility Wind Dir Wind Speed Gust Speed Precip Events Conditions
12:52 AM 37.9 °F 29.2 °F 24.1 °F 57% 29.93 in 10.0 mi SSW 15.0 mph 23.0 mph N/A   Clear
1:52 AM 37.9 °F 28.5 °F 24.1 °F 57% 29.90 in 10.0 mi SSW 17.3 mph 27.6 mph N/A   Partly Cloudy
2:52 AM 37.0 °F 28.5 °F 25.0 °F 62% 29.89 in 10.0 mi SW 13.8 mph 23.0 mph N/A   Clear
3:52 AM 37.0 °F 27.7 °F 26.1 °F 65% 29.87 in 10.0 mi SW 16.1 mph 19.6 mph N/A   Clear
4:52 AM 37.0 °F 28.9 °F 26.1 °F 65% 29.85 in 10.0 mi SSW 12.7 mph - N/A   Clear
5:52 AM 37.9 °F 29.6 °F 28.0 °F 68% 29.83 in 10.0 mi SSW 13.8 mph 23.0 mph N/A   Mostly Cloudy
6:52 AM 39.0 °F 31.8 °F 28.9 °F 67% 29.82 in 10.0 mi SW 11.5 mph - N/A   Overcast
7:52 AM 39.0 °F 31.0 °F 28.9 °F 67% 29.83 in 10.0 mi SSW 13.8 mph 21.9 mph N/A   Overcast
8:52 AM 39.0 °F 31.0 °F 30.0 °F 70% 29.83 in 8.0 mi SW 13.8 mph - 0.00 in Rain Light Rain
9:52 AM 39.0 °F 30.3 °F 32.0 °F 76% 29.82 in 7.0 mi SW 16.1 mph 21.9 mph 0.01 in Rain Light Rain
10:52 AM 41.0 °F 32.8 °F 34.0 °F 76% 29.80 in 9.0 mi SW 16.1 mph 24.2 mph 0.00 in   Overcast
11:52 AM 45.0 °F 38.2 °F 34.0 °F 65% 29.78 in 10.0 mi SW 15.0 mph 24.2 mph N/A   Overcast
12:52 PM 48.0 °F - 36.0 °F 63% 29.78 in 10.0 mi SW 17.3 mph 24.2 mph N/A   Mostly Cloudy
1:52 PM 48.9 °F - 36.0 °F 61% 29.75 in 10.0 mi SW 17.3 mph 23.0 mph N/A   Overcast
2:52 PM 51.1 °F - 37.0 °F 59% 29.71 in 10.0 mi SSW 17.3 mph 27.6 mph N/A   Partly Cloudy
3:52 PM 54.0 °F - 37.9 °F 55% 29.69 in 10.0 mi SSW 19.6 mph 26.5 mph N/A   Clear
4:52 PM 55.0 °F - 37.9 °F 53% 29.67 in 10.0 mi SSW 20.7 mph 31.1 mph N/A   Clear
5:52 PM 55.9 °F - 37.9 °F 51% 29.66 in 10.0 mi SSW 17.3 mph - N/A   Clear
6:52 PM 55.0 °F - 37.9 °F 53% 29.65 in 10.0 mi SW 13.8 mph 23.0 mph N/A   Clear
7:52 PM 53.1 °F - 37.9 °F 57% 29.68 in 10.0 mi SW 11.5 mph - N/A   Clear
8:52 PM 51.1 °F - 37.9 °F 61% 29.69 in 10.0 mi SW 12.7 mph - N/A   Clear
9:52 PM 50.0 °F - 37.9 °F 63% 29.70 in 10.0 mi WSW 13.8 mph 21.9 mph N/A   Clear
10:52 PM 50.0 °F - 37.9 °F 63% 29.72 in 10.0 mi WSW 10.4 mph 18.4 mph N/A   Clear
11:52 PM 48.9 °F - 37.9 °F 66% 29.70 in 10.0 mi SW 11.5 mph - N/A   Clear